FW3162 Weather Reports


time (UTC)temp
C
wind
direction
speed
KPH
gust
KPH
rain 1hr
cm
rain 24hr
cm
rain mn
cm
humidity
%
barometer
mb
20260507070545 13 46 1.6 16.1 0.05 0.46 0.25 95 1007.2
20260507070101 14 68 3.2 12.9 0.10 0.46 0.25 95 1007.0
20260507065543 14 354 1.6 8.0 0.10 0.46 0.25 95 1006.6
20260507065043 14 353 1.6 6.4 0.15 0.46 0.25 95 1006.6
20260507064550 14 27 1.6 8.0 0.18 0.46 0.25 95 1006.7
20260507064041 15 263 0.0 8.0 0.20 0.46 0.25 96 1006.7
20260507063540 15 146 0.0 8.0 0.23 0.46 0.25 96 1006.5
20260507063040 15 22 1.6 8.0 0.23 0.46 0.25 96 1006.5
20260507062541 15 113 1.6 8.0 0.25 0.46 0.25 96 1006.8
20260507062038 15 65 0.0 6.4 0.25 0.46 0.25 96 1007.0
20260507061538 15 250 0.0 3.2 0.25 0.46 0.25 95 1006.9
20260507061037 15 22 0.0 6.4 0.25 0.46 0.25 95 1006.2
20260507060534 15 29 0.0 3.2 0.20 0.41 0.20 95 1006.6
20260507060039 15 340 0.0 8.0 0.15 0.36 0.15 95 1007.0
20260507055533 16 91 1.6 11.3 0.13 0.33 0.13 94 1007.4
20260507055033 16 112 1.6 11.3 0.10 0.30 0.10 94 1007.2
20260507054537 16 72 1.6 9.7 0.08 0.28 0.08 93 1007.1
20260507054034 16 251 0.0 16.1 0.05 0.25 0.05 93 1007.2
20260507053530 16 265 1.6 16.1 0.03 0.23 0.03 91 1007.4
20260507053029 17 71 1.6 17.7 0.00 0.20 0.00 89 1007.0
20260507052527 17 332 6.4 17.7 0.00 0.20 0.00 88 1007.1
20260507052027 17 55 1.6 9.7 0.00 0.20 0.00 87 1007.4
20260507051526 17 260 1.6 9.7 0.00 0.20 0.00 89 1007.6
20260507051025 18 211 0.0 8.0 0.00 0.20 0.00 90 1007.3
20260507050523 18 223 0.0 4.8 0.00 0.20 0.00 90 1007.3
20260507050038 18 271 0.0 4.8 0.00 0.20 0.00 91 1007.2
20260507045522 18 294 0.0 4.8 0.00 0.20 0.00 91 1007.1
20260507045021 18 171 0.0 6.4 0.00 0.20 0.00 92 1007.1
20260507044522 18 174 1.6 6.4 0.00 0.20 0.00 92 1007.1
20260507044020 18 276 0.0 4.8 0.00 0.20 0.00 92 1007.1
20260507043520 18 290 0.0 6.4 0.00 0.20 0.00 92 1007.0
20260507043019 18 290 0.0 6.4 0.00 0.20 0.00 92 1006.9
20260507042519 18 272 0.0 4.8 0.00 0.20 0.00 92 1006.9
20260507042018 18 141 0.0 3.2 0.00 0.20 0.00 92 1006.7
20260507041517 18 155 0.0 3.2 0.00 0.20 0.00 92 1006.5
20260507041016 18 124 0.0 4.8 0.00 0.20 0.00 92 1006.5
20260507040515 18 233 0.0 4.8 0.00 0.20 0.00 92 1006.6
20260507040013 18 165 0.0 3.2 0.00 0.20 0.00 93 1006.7
20260507035513 18 144 0.0 3.2 0.00 0.20 0.20 93 1006.8
20260507035014 17 132 0.0 3.2 0.00 0.20 0.20 93 1006.7
20260507034513 17 150 0.0 3.2 0.00 0.20 0.20 94 1006.7
20260507034013 17 186 0.0 1.6 0.00 0.20 0.20 94 1006.6
20260507033513 17 186 0.0 0.0 0.00 0.20 0.20 94 1006.6
20260507033014 17 186 0.0 0.0 0.00 0.20 0.20 94 1006.4
20260507032513 17 186 0.0 0.0 0.00 0.20 0.20 94 1006.4
20260507032013 17 186 0.0 0.0 0.00 0.20 0.20 94 1006.3
20260507031513 17 186 0.0 0.0 0.00 0.20 0.20 94 1006.3
20260507031015 17 186 0.0 0.0 0.00 0.20 0.20 94 1006.4
20260507030512 17 186 0.0 0.0 0.00 0.20 0.20 94 1006.4
20260507030016 17 186 0.0 0.0 0.00 0.20 0.20 94 1006.3
20260507025512 17 186 0.0 3.2 0.00 0.20 0.20 94 1006.2
20260507025013 17 188 0.0 3.2 0.00 0.20 0.20 95 1006.3
20260507024512 17 189 0.0 3.2 0.00 0.20 0.20 96 1006.5
20260507024012 17 195 0.0 3.2 0.00 0.20 0.20 96 1006.6
20260507023513 17 126 0.0 0.0 0.00 0.20 0.20 96 1006.7
20260507023011 16 126 0.0 0.0 0.00 0.20 0.20 96 1006.8
20260507022511 16 126 0.0 0.0 0.00 0.20 0.20 96 1006.8
20260507022013 16 126 0.0 0.0 0.00 0.20 0.20 96 1006.7
20260507021511 16 126 0.0 0.0 0.00 0.20 0.20 96 1006.8
20260507021011 16 126 0.0 0.0 0.00 0.20 0.20 96 1006.7
20260507020510 16 126 0.0 0.0 0.00 0.20 0.20 96 1006.7
20260507020011 16 126 0.0 0.0 0.00 0.20 0.20 95 1006.8
20260507015510 16 126 0.0 0.0 0.00 0.20 0.20 95 1006.9
20260507015012 16 126 0.0 0.0 0.00 0.20 0.20 95 1007.0
20260507014509 16 126 0.0 0.0 0.00 0.20 0.20 95 1007.0
20260507014009 16 126 0.0 0.0 0.00 0.20 0.20 94 1007.0
20260507013507 16 126 0.0 0.0 0.00 0.20 0.20 94 1007.3
20260507013007 16 126 0.0 0.0 0.00 0.20 0.20 94 1007.3
20260507012507 16 127 0.0 0.0 0.00 0.20 0.20 93 1007.3
20260507012006 16 126 0.0 0.0 0.00 0.20 0.20 93 1007.1
20260507011504 16 126 0.0 0.0 0.00 0.20 0.20 92 1007.0
20260507011004 17 126 0.0 0.0 0.00 0.20 0.20 92 1006.9
20260507010506 17 126 0.0 0.0 0.00 0.20 0.20 92 1006.9
20260507010003 17 126 0.0 0.0 0.00 0.20 0.20 91 1006.9
20260507005503 17 126 0.0 0.0 0.00 0.20 0.20 91 1006.6
20260507005002 17 126 0.0 0.0 0.00 0.20 0.20 90 1006.9
20260507004504 17 126 0.0 0.0 0.00 0.20 0.20 90 1006.9
20260507004003 18 126 0.0 0.0 0.00 0.20 0.20 89 1006.8
20260507003503 18 126 0.0 0.0 0.00 0.20 0.20 89 1006.6
20260507003002 18 126 0.0 0.0 0.00 0.20 0.20 88 1006.6
20260507002502 18 126 0.0 0.0 0.00 0.20 0.20 88 1006.6
20260507002002 18 126 0.0 0.0 0.00 0.20 0.20 87 1006.6
20260507001500 18 126 0.0 0.0 0.00 0.20 0.20 87 1006.6
20260507001001 19 126 0.0 3.2 0.00 0.20 0.20 87 1006.7
20260507000603 19 126 0.0 3.2 0.00 0.20 0.20 87 1006.5
20260507000125 19 126 0.0 3.2 0.00 0.20 0.20 86 1006.4
20260506235601 19 287 0.0 4.8 0.00 0.20 0.20 86 1006.5
20260506235102 19 287 0.0 6.4 0.00 0.20 0.20 86 1006.3
20260506234621 19 139 0.0 6.4 0.00 0.20 0.20 85 1006.3
20260506234058 20 223 0.0 8.0 0.00 0.20 0.20 85 1006.2
20260506233601 20 164 0.0 8.0 0.00 0.20 0.20 85 1006.1
20260506233058 20 157 1.6 6.4 0.00 0.20 0.20 85 1006.2
20260506232557 20 210 0.0 8.0 0.00 0.20 0.20 85 1006.1
20260506232057 20 143 0.0 8.0 0.00 0.20 0.20 84 1006.1
20260506231557 20 238 1.6 9.7 0.00 0.20 0.20 84 1006.0
20260506231059 20 295 0.0 8.0 0.00 0.20 0.20 84 1006.2
20260506230557 20 122 1.6 8.0 0.00 0.20 0.20 84 1006.0
20260506230103 20 214 0.0 9.7 0.00 0.20 0.20 84 1006.1
20260506225556 20 132 1.6 9.7 0.00 0.20 0.20 83 1006.2
20260506225056 20 226 0.0 11.3 0.00 0.20 0.20 84 1006.3
20260506224556 20 143 3.2 12.9 0.00 0.20 0.20 83 1006.1
20260506224055 20 199 3.2 12.9 0.00 0.20 0.20 83 1006.1
20260506223559 20 303 1.6 9.7 0.00 0.20 0.20 83 1006.1
20260506223103 20 242 3.2 11.3 0.00 0.20 0.20 83 1006.1
20260506222556 20 143 3.2 16.1 0.00 0.20 0.20 83 1006.1
20260506222056 20 262 6.4 22.5 0.00 0.20 0.20 82 1006.2
20260506221603 20 161 4.8 16.1 0.00 0.20 0.20 82 1006.0
20260506221056 20 224 6.4 17.7 0.00 0.20 0.20 82 1006.1
20260506220555 20 143 3.2 17.7 0.00 0.20 0.20 82 1006.1
20260506220056 20 290 3.2 17.7 0.00 0.20 0.20 82 1006.1
20260506215554 20 136 3.2 17.7 0.00 0.20 0.20 82 1006.2
20260506215054 20 174 4.8 14.5 0.00 0.20 0.20 82 1006.2
20260506214600 20 276 4.8 17.7 0.00 0.20 0.20 82 1006.2
20260506214054 20 142 4.8 17.7 0.00 0.20 0.20 82 1006.0
20260506213557 20 136 6.4 16.1 0.00 0.20 0.20 82 1005.9
20260506213059 20 141 3.2 19.3 0.00 0.20 0.20 82 1005.9
20260506212555 20 273 6.4 19.3 0.00 0.20 0.20 82 1005.9
20260506212055 20 200 6.4 20.9 0.00 0.20 0.20 82 1005.9
20260506211556 20 143 6.4 20.9 0.00 0.20 0.20 82 1005.8
20260506211055 20 139 8.0 19.3 0.00 0.20 0.20 81 1005.9
20260506210553 20 216 6.4 19.3 0.00 0.20 0.20 81 1005.8
20260506210053 20 238 6.4 19.3 0.00 0.20 0.20 82 1005.7
20260506205552 20 177 8.0 17.7 0.00 0.20 0.20 82 1005.6
20260506205053 20 240 6.4 17.7 0.00 0.20 0.20 82 1005.7
20260506204553 20 127 6.4 14.5 0.00 0.20 0.20 82 1005.7
20260506204052 20 176 3.2 22.5 0.00 0.20 0.20 82 1005.9
20260506203552 20 139 8.0 22.5 0.00 0.20 0.20 82 1005.7
20260506203053 20 172 6.4 29.0 0.00 0.20 0.20 82 1005.7
20260506202552 20 214 6.4 20.9 0.00 0.20 0.20 82 1005.6
20260506202052 20 241 6.4 20.9 0.00 0.20 0.20 82 1005.5
20260506201551 20 166 6.4 19.3 0.00 0.20 0.20 82 1005.8
20260506201051 20 222 11.3 19.3 0.00 0.20 0.20 81 1005.7
20260506200550 20 134 4.8 19.3 0.00 0.20 0.20 82 1005.7
20260506200049 20 203 6.4 27.4 0.00 0.20 0.20 81 1005.9
20260506195548 20 136 4.8 27.4 0.00 0.20 0.20 82 1006.0
20260506195048 20 197 6.4 22.5 0.00 0.20 0.20 82 1006.0
20260506194548 20 145 8.0 20.9 0.00 0.20 0.20 81 1006.2
20260506194047 20 296 6.4 17.7 0.00 0.20 0.20 81 1006.2
20260506193547 20 172 4.8 12.9 0.00 0.20 0.20 81 1006.2
20260506193052 20 180 3.2 16.1 0.00 0.20 0.20 81 1006.3
20260506192547 20 145 4.8 16.1 0.00 0.20 0.20 81 1006.3
20260506192048 20 162 4.8 16.1 0.00 0.20 0.20 81 1006.3
20260506191547 20 274 4.8 24.1 0.00 0.20 0.20 81 1006.2
20260506191050 20 149 6.4 25.7 0.00 0.20 0.20 80 1006.3
20260506190547 20 215 9.7 25.7 0.00 0.20 0.20 80 1006.3
20260506190046 20 214 6.4 20.9 0.00 0.20 0.20 81 1006.2
20260506185544 20 123 6.4 22.5 0.00 0.20 0.20 81 1006.4
20260506185043 20 226 9.7 22.5 0.00 0.20 0.20 81 1006.4
20260506184543 20 138 9.7 20.9 0.00 0.20 0.20 81 1006.5
20260506184042 20 243 6.4 20.9 0.00 0.20 0.20 81 1006.7
20260506183542 20 252 8.0 22.5 0.00 0.20 0.20 81 1007.0
20260506183041 20 195 8.0 25.7 0.00 0.20 0.20 81 1007.0
20260506182544 20 172 12.9 32.2 0.00 0.20 0.20 81 1007.1
20260506182040 20 108 6.4 32.2 0.00 0.20 0.20 81 1006.8
20260506181555 20 136 8.0 22.5 0.00 0.20 0.20 81 1007.0
20260506181040 20 177 6.4 25.7 0.00 0.20 0.20 82 1007.0
20260506180539 20 70 8.0 25.7 0.00 0.20 0.20 83 1007.1
20260506180039 19 106 9.7 22.5 0.00 0.20 0.20 83 1007.1
20260506175538 19 163 6.4 22.5 0.00 0.20 0.20 84 1007.2
20260506175038 19 158 4.8 24.1 0.00 0.20 0.20 84 1007.2
20260506174539 19 157 8.0 24.1 0.00 0.20 0.20 84 1007.5
20260506174039 19 198 9.7 19.3 0.00 0.20 0.20 84 1007.3
20260506173539 19 136 6.4 20.9 0.00 0.20 0.20 85 1007.4
20260506173103 18 153 9.7 24.1 0.00 0.20 0.20 86 1007.2
20260506172542 18 189 6.4 24.1 0.00 0.20 0.20 88 1007.1
20260506172037 18 169 4.8 20.9 0.03 0.20 0.20 89 1007.2
20260506171542 18 212 6.4 20.9 0.03 0.20 0.20 89 1007.1
20260506171037 18 139 8.0 19.3 0.08 0.20 0.20 88 1007.5
20260506170536 18 204 4.8 25.7 0.10 0.20 0.20 89 1007.4
20260506170051 18 110 9.7 25.7 0.10 0.20 0.20 89 1007.2
20260506165534 18 184 8.0 24.1 0.13 0.20 0.20 89 1007.5
20260506165034 18 176 9.7 24.1 0.13 0.20 0.20 89 1007.6
20260506164533 18 105 4.8 14.5 0.13 0.20 0.20 91 1007.7
20260506164036 18 161 4.8 16.1 0.15 0.20 0.20 92 1007.6
20260506163534 17 165 6.4 16.1 0.15 0.20 0.20 93 1007.6
20260506163037 17 169 3.2 16.1 0.15 0.20 0.20 93 1007.7
20260506162535 17 247 4.8 16.1 0.15 0.20 0.20 92 1007.8
20260506162031 17 174 4.8 16.1 0.13 0.18 0.18 92 1007.9
20260506161531 17 130 4.8 19.3 0.15 0.18 0.18 91 1007.9
20260506161028 17 180 6.4 19.3 0.10 0.13 0.13 91 1008.0
20260506160528 17 198 4.8 14.5 0.08 0.10 0.10 91 1008.1
20260506160027 17 129 1.6 12.9 0.10 0.10 0.10 91 1008.2
20260506155527 17 102 3.2 12.9 0.08 0.08 0.08 90 1008.5
20260506155026 17 219 3.2 12.9 0.08 0.08 0.08 90 1008.6
20260506154526 17 110 3.2 11.3 0.08 0.08 0.08 89 1008.5
20260506154027 17 141 1.6 14.5 0.05 0.05 0.05 89 1008.7
20260506153525 17 155 4.8 14.5 0.05 0.05 0.05 89 1008.8
20260506153026 17 140 3.2 11.3 0.05 0.05 0.05 89 1008.8
20260506152524 17 191 3.2 11.3 0.05 0.05 0.05 88 1008.8
20260506152024 17 139 4.8 12.9 0.03 0.03 0.03 87 1008.9
20260506151524 17 174 3.2 12.9 0.03 0.03 0.03 86 1008.9
20260506151024 18 227 4.8 11.3 0.03 0.03 0.03 85 1008.9
20260506150523 18 166 4.8 12.9 0.03 0.03 0.03 84 1008.9
20260506150022 18 158 4.8 12.9 0.00 0.00 0.00 84 1008.9
20260506145522 18 171 1.6 14.5 0.00 0.00 0.00 83 1008.9
20260506145022 18 178 3.2 17.7 0.00 0.00 0.00 82 1008.9
20260506144521 18 144 3.2 17.7 0.00 0.00 0.00 82 1009.0
20260506144024 18 256 3.2 14.5 0.00 0.00 0.00 81 1009.0
20260506143521 18 101 4.8 17.7 0.00 0.00 0.00 80 1009.0
20260506143026 19 136 6.4 17.7 0.00 0.00 0.00 78 1008.8
20260506142520 19 192 6.4 14.5 0.00 0.00 0.00 77 1008.8
20260506142020 19 135 6.4 19.3 0.00 0.00 0.00 76 1009.0
20260506141520 19 200 6.4 19.3 0.00 0.00 0.00 76 1008.9
20260506141020 20 187 4.8 19.3 0.00 0.00 0.00 75 1008.9
20260506140520 20 161 3.2 19.3 0.00 0.00 0.00 75 1008.8
20260506140021 20 212 4.8 20.9 0.00 0.00 0.00 74 1008.7
20260506135518 20 173 6.4 20.9 0.00 0.00 0.00 75 1008.8
20260506135020 20 106 8.0 20.9 0.00 0.00 0.00 75 1008.6
20260506134519 20 121 9.7 20.9 0.00 0.00 0.00 74 1008.7
20260506134019 20 185 6.4 19.3 0.00 0.00 0.00 74 1008.7
20260506133521 20 158 4.8 20.9 0.00 0.00 0.00 74 1008.6
20260506133018 20 243 9.7 20.9 0.00 0.00 0.00 74 1008.6
20260506132518 20 143 4.8 20.9 0.00 0.00 0.00 74 1008.6
20260506132021 20 181 0.0 16.1 0.00 0.00 0.00 75 1008.7
20260506131518 20 193 6.4 19.3 0.00 0.00 0.00 74 1008.8
20260506131019 19 184 6.4 17.7 0.00 0.00 0.00 74 1008.8
20260506130517 19 199 4.8 17.7 0.00 0.00 0.00 74 1008.8
20260506130017 19 195 3.2 14.5 0.00 0.00 0.00 75 1008.7
20260506125516 19 166 8.0 14.5 0.00 0.00 0.00 75 1008.7
20260506125016 19 153 6.4 16.1 0.00 0.00 0.00 75 1008.7
20260506124518 19 124 4.8 22.5 0.00 0.00 0.00 75 1008.7
20260506124017 19 152 6.4 22.5 0.00 0.00 0.00 75 1008.8
20260506123516 19 243 6.4 24.1 0.00 0.00 0.00 75 1009.0
20260506123016 19 152 8.0 24.1 0.00 0.00 0.00 75 1009.0
20260506122516 19 141 6.4 19.3 0.00 0.00 0.00 75 1009.1
20260506122021 19 240 6.4 19.3 0.00 0.00 0.00 75 1009.2
20260506121515 19 136 3.2 22.5 0.00 0.00 0.00 75 1009.1
20260506121014 18 285 3.2 22.5 0.00 0.00 0.00 76 1009.2
20260506120514 18 162 8.0 24.1 0.00 0.00 0.00 76 1009.2
20260506120014 18 235 6.4 24.1 0.00 0.00 0.00 76 1009.2
20260506115514 18 245 4.8 22.5 0.00 0.00 0.00 76 1009.1
20260506115013 18 208 8.0 22.5 0.00 0.00 0.00 76 1009.1
20260506114513 18 185 6.4 20.9 0.00 0.00 0.00 76 1009.0
20260506114013 18 248 6.4 20.9 0.00 0.00 0.00 77 1009.0
20260506113514 18 174 6.4 19.3 0.00 0.00 0.00 77 1008.9
20260506113013 18 133 6.4 14.5 0.00 0.00 0.00 77 1008.9
20260506112513 18 128 6.4 16.1 0.00 0.00 0.00 78 1008.8
20260506112012 17 160 1.6 11.3 0.00 0.00 0.00 79 1008.8
20260506111512 17 160 1.6 11.3 0.00 0.00 0.00 79 1008.8
20260506111014 17 159 4.8 12.9 0.00 0.00 0.00 79 1008.7
20260506110514 17 136 3.2 12.9 0.00 0.00 0.00 79 1008.7
20260506110011 17 200 3.2 16.1 0.00 0.00 0.00 79 1008.7
20260506105511 17 225 8.0 17.7 0.00 0.00 0.00 79 1008.7
20260506105011 17 204 1.6 17.7 0.00 0.00 0.00 79 1008.6
20260506104527 17 91 1.6 14.5 0.00 0.00 0.00 80 1008.6
20260506104010 17 131 4.8 16.1 0.00 0.00 0.00 80 1008.7
20260506103510 17 176 3.2 16.1 0.00 0.00 0.00 80 1008.5
20260506103010 17 219 6.4 16.1 0.00 0.00 0.00 80 1008.5
20260506102511 17 209 4.8 14.5 0.00 0.00 0.00 81 1008.5
20260506102009 17 162 3.2 14.5 0.00 0.00 0.00 81 1008.4
20260506101510 17 125 4.8 14.5 0.00 0.00 0.00 81 1008.4
20260506101009 17 97 4.8 16.1 0.00 0.00 0.00 81 1008.6
20260506100508 17 185 6.4 16.1 0.00 0.00 0.00 81 1008.8
20260506100008 17 130 4.8 14.5 0.00 0.00 0.00 81 1008.7
20260506095511 17 155 4.8 14.5 0.00 0.00 0.00 81 1008.6
20260506095009 17 167 6.4 14.5 0.00 0.00 0.00 82 1008.8
20260506094508 17 179 4.8 14.5 0.00 0.00 0.00 82 1008.8
20260506094006 17 203 4.8 14.5 0.00 0.00 0.00 82 1008.7
20260506093508 17 117 1.6 20.9 0.00 0.00 0.00 81 1008.7
20260506093007 17 160 3.2 12.9 0.00 0.00 0.00 82 1008.6
20260506092506 17 134 3.2 11.3 0.00 0.00 0.00 81 1008.7
20260506092006 17 98 3.2 20.9 0.00 0.00 0.00 81 1008.7
20260506091506 17 165 3.2 12.9 0.00 0.00 0.00 81 1008.5
20260506091005 17 192 3.2 12.9 0.00 0.00 0.00 81 1008.5
20260506090509 17 235 3.2 14.5 0.00 0.00 0.00 81 1008.6
20260506090004 17 118 4.8 14.5 0.00 0.00 0.00 81 1008.7
20260506085508 17 221 3.2 14.5 0.00 0.00 0.00 81 1008.7
20260506085004 17 135 3.2 16.1 0.00 0.00 0.00 81 1008.6
20260506084506 17 93 8.0 16.1 0.00 0.00 0.00 81 1008.6
20260506084004 17 106 3.2 14.5 0.00 0.00 0.00 81 1008.6
20260506083503 17 211 4.8 14.5 0.00 0.00 0.00 81 1008.6
20260506083003 17 158 6.4 19.3 0.00 0.00 0.00 81 1008.6
20260506082500 17 120 3.2 19.3 0.00 0.00 0.00 81 1008.6
20260506082100 17 169 3.2 14.5 0.00 0.00 0.00 82 1008.6
20260506081602 17 139 1.6 17.7 0.00 0.00 0.00 82 1008.7
20260506081058 18 118 3.2 17.7 0.00 0.00 0.00 81 1008.7
20260506080558 18 198 6.4 17.7 0.00 0.00 0.00 81 1008.8
20260506080106 18 101 6.4 20.9 0.00 0.00 0.00 81 1008.8
20260506073053 18 157 8.0 20.9 0.00 0.00 0.00 81 1008.9
20260506072553 18 146 4.8 16.1 0.00 0.00 0.00 81 1008.8
20260506072052 18 162 4.8 16.1 0.00 0.00 0.00 80 1008.9
20260506071603 18 139 6.4 20.9 0.00 0.00 0.00 80 1008.9
20260506071050 18 141 6.4 20.9 0.00 0.00 0.00 80 1008.9